カタログに戻る

STARLINK-6222

運用中通信VLEO
NORAD 56481·PAYLOAD·🇺🇸 United States

打ち上げ May 10, 2023 から Vandenberg Space Force Base

Loading…

次のパス (今後24時間)

TLE

最新Source: CelesTrak SupGP

元期: Sep 15, 2026, 02:27 UTC

1 56481C 23064AK  26258.10256944  .00548670  00000+0  45010-1 0  2581
2 56481  70.0005   6.7760 0003046 266.8762 109.9270 14.98878564    13

AllMySatでSTARLINK-6222をリアルタイム追跡

Download on the App Store